Location: Newark
(47.5833°N, 8.1500°E)
Time: 11:16:40
(UTC+00:00)

Vanguard 2 Rocket - Pass Details

Date: 29 October 2020
Orbit: 553 x 3326 km, 32.9° (Epoch: 04 December)

Event Time Altitude Azimuth Distance (km) Brightness Sun altitude
Rises 21:53:58 0° 246° (WSW) 3,279 - -52.6°
Reaches altitude 10° 21:57:55 10° 215° (SW) 2,750 - -53.0°
Maximum altitude 22:00:22 12° 193° (SSW) 2,860 - -53.2°
Drops below altitude 10° 22:03:15 10° 172° (S) 3,354 - -53.4°
Sets 22:09:36 0° 147° (SSE) 5,066 - -53.9°
